Hillsdale, MI

11:05 AM EDT on April 19, 2018 (GMT -0400)
Hillsdale Municipal

Weather History for KJYM - April, 2013

Change the Weather History Date:

Saturday, April 6, 2013

  Actual Average Record
Temperature  
Mean Temperature 46 °F -  
Max Temperature 58 °F 51 °F 78 °F (1988)
Min Temperature 34 °F 31 °F 16 °F (1982)
Degree Days  
Heating Degree Days 19    
Moisture  
Dew Point 21 °F    
Average Humidity 41    
Maximum Humidity 68    
Minimum Humidity 24    
Precipitation  
Precipitation 0.00 in - - ()
Sea Level Pressure  
Sea Level Pressure 30.04 in    
Wind  
Wind Speed 11 mph (SSE)    
Max Wind Speed 22 mph    
Max Gust Speed 30 mph    
Visibility 10 miles    
Events      
Averages and records for this station are not official NWS values.
T = Trace of Precipitation, MM = Missing Value Source: NWS Daily Summary

Daily Weather History Graph

Daily Weather History Graph

Search for Another Location

Airport or City:

Astronomy

Apr. 06, 2013 Rise Set
Actual Time 7:12 AM EDT 8:09 PM EDT
Civil Twilight 6:43 AM EDT 8:38 PM EDT
Nautical Twilight 6:10 AM EDT 9:12 PM EDT
Astronomical Twilight 5:34 AM EDT 9:47 PM EDT
Moon 4:58 AM EDT (4/6) 4:34 PM EDT (4/6)
Length of Visible Light 13h 54m
Length of Day
12h 57m
Waning Crescent, 15% of the Moon is Illuminated
Apr 6
Waning Crescent
Apr 10
New
Apr 18
First Quarter
Apr 25
Full
May 2
Last Quarter

Hourly Weather History & Observations

Time (EDT) Temp. Windchill Dew Point Humidity Pressure Visibility Wind Dir Wind Speed Gust Speed Precip Events Conditions
12:14 AM 36.0 °F 30.3 °F 23.0 °F 59% 30.16 in 10.0 mi SE 6.9 mph - N/A   Mostly Cloudy
12:35 AM 35.6 °F 30.7 °F 23.0 °F 60% 30.16 in 10.0 mi SE 5.8 mph - N/A   Mostly Cloudy
12:55 AM 35.4 °F 30.5 °F 23.2 °F 61% 30.16 in 10.0 mi SE 5.8 mph - N/A   Mostly Cloudy
1:14 AM 35.2 °F 28.8 °F 23.4 °F 62% 30.16 in 10.0 mi SE 8.1 mph - N/A   Mostly Cloudy
1:35 AM 35.1 °F 27.9 °F 23.4 °F 62% 30.17 in 10.0 mi SE 9.2 mph - N/A   Mostly Cloudy
1:54 AM 34.3 °F 27.7 °F 23.5 °F 65% 30.17 in 10.0 mi SE 8.1 mph - N/A   Scattered Clouds
2:15 AM 34.2 °F 27.5 °F 24.3 °F 67% 30.18 in 10.0 mi SE 8.1 mph - N/A   Mostly Cloudy
2:35 AM 34.3 °F 27.7 °F 24.4 °F 67% 30.17 in 10.0 mi SE 8.1 mph - N/A   Overcast
2:54 AM 34.2 °F 26.8 °F 24.4 °F 68% 30.17 in 10.0 mi SE 9.2 mph - N/A   Overcast
3:15 AM 34.2 °F 27.5 °F 24.3 °F 67% 30.17 in 10.0 mi SE 8.1 mph - N/A   Overcast
3:35 AM 34.2 °F 27.5 °F 23.7 °F 66% 30.16 in 10.0 mi SE 8.1 mph - N/A   Overcast
3:54 AM 34.2 °F 26.8 °F 22.8 °F 63% 30.16 in 10.0 mi SE 9.2 mph - N/A   Overcast
4:15 AM 34.2 °F 26.8 °F 22.5 °F 62% 30.17 in 10.0 mi ESE 9.2 mph - N/A   Overcast
4:34 AM 34.2 °F 26.2 °F 21.9 °F 61% 30.17 in 10.0 mi ESE 10.4 mph - N/A   Overcast
4:55 AM 34.2 °F 27.5 °F 20.8 °F 58% 30.17 in 10.0 mi SE 8.1 mph - N/A   Overcast
5:15 AM 34.2 °F 27.5 °F 20.8 °F 58% 30.17 in 10.0 mi SE 8.1 mph - N/A   Overcast
5:34 AM 34.2 °F 27.5 °F 20.1 °F 57% 30.18 in 10.0 mi SE 8.1 mph - N/A   Overcast
5:55 AM 34.2 °F 26.8 °F 19.0 °F 54% 30.17 in 10.0 mi SE 9.2 mph - N/A   Overcast
6:14 AM 34.2 °F 28.2 °F 17.2 °F 50% 30.17 in 10.0 mi SE 6.9 mph - N/A   Overcast
6:34 AM 34.3 °F 27.7 °F 16.3 °F 48% 30.17 in 10.0 mi SE 8.1 mph - N/A   Overcast
6:55 AM 34.2 °F 26.2 °F 16.0 °F 47% 30.17 in 10.0 mi SE 10.4 mph - N/A   Overcast
7:14 AM 34.3 °F 27.0 °F 16.0 °F 47% 30.17 in 10.0 mi SE 9.2 mph - N/A   Overcast
7:34 AM 34.3 °F 25.9 °F 16.2 °F 47% 30.17 in 10.0 mi SE 11.5 mph - N/A   Mostly Cloudy
8:14 AM 35.1 °F 26.9 °F 15.4 °F 45% 30.19 in 10.0 mi SE 11.5 mph - N/A   Mostly Cloudy
8:34 AM 35.2 °F 27.1 °F 15.4 °F 44% 30.19 in 10.0 mi SE 11.5 mph 18.4 mph N/A   Mostly Cloudy
8:55 AM 36.0 °F 28.5 °F 16.9 °F 46% 30.19 in 10.0 mi SSE 10.4 mph 16.1 mph N/A   Scattered Clouds
9:14 AM 36.7 °F 28.9 °F 16.9 °F 45% 30.18 in 10.0 mi SSE 11.5 mph 18.4 mph N/A   Scattered Clouds
9:35 AM 38.1 °F 29.5 °F 17.1 °F 43% 30.17 in 10.0 mi SSE 15.0 mph 20.7 mph N/A   Clear
9:55 AM 38.5 °F 29.9 °F 16.7 °F 41% 30.16 in 10.0 mi SE 15.0 mph 24.2 mph N/A   Clear
10:14 AM 39.9 °F 31.8 °F 16.2 °F 38% 30.15 in 10.0 mi SSE 15.0 mph 19.6 mph N/A   Clear
10:35 AM 40.5 °F 31.5 °F 15.8 °F 37% 30.15 in 10.0 mi SE 18.4 mph 25.3 mph N/A   Clear
10:55 AM 41.5 °F 33.2 °F 16.0 °F 36% 30.15 in 10.0 mi SE 17.3 mph 23.0 mph N/A   Clear
11:14 AM 42.4 °F 35.3 °F 16.3 °F 35% 30.15 in 10.0 mi SSE 13.8 mph 23.0 mph N/A   Clear
11:35 AM 43.5 °F 36.7 °F 16.3 °F 34% 30.14 in 10.0 mi SSE 13.8 mph 20.7 mph N/A   Clear
11:54 AM 44.4 °F 36.4 °F 16.0 °F 32% 30.13 in 10.0 mi SSE 19.6 mph 27.6 mph N/A   Clear
12:14 PM 45.3 °F 38.7 °F 16.2 °F 31% 30.12 in 10.0 mi SSE 15.0 mph 25.3 mph N/A   Clear
12:35 PM 46.9 °F - 15.8 °F 29% 30.10 in 10.0 mi SSE 19.6 mph 24.2 mph N/A   Clear
12:54 PM 48.0 °F - 15.6 °F 27% 30.09 in 10.0 mi SSE 18.4 mph 25.3 mph N/A   Clear
1:14 PM 49.5 °F - 16.0 °F 26% 30.08 in 10.0 mi SSE 15.0 mph 21.9 mph N/A   Clear
1:34 PM 49.6 °F - 15.8 °F 26% 30.07 in 10.0 mi South 17.3 mph 25.3 mph N/A   Clear
1:54 PM 50.5 °F - 16.2 °F 26% 30.05 in 10.0 mi SSE 17.3 mph 25.3 mph N/A   Clear
2:15 PM 51.8 °F - 16.7 °F 25% 30.05 in 10.0 mi SSE 15.0 mph 25.3 mph N/A   Clear
2:34 PM 52.2 °F - 16.5 °F 24% 30.04 in 10.0 mi South 15.0 mph 25.3 mph N/A   Clear
2:55 PM 53.6 °F - 17.6 °F 24% 30.01 in 10.0 mi SSE 12.7 mph 23.0 mph N/A   Clear
3:15 PM 54.3 °F - 18.5 °F 25% 30.00 in 10.0 mi SSE 15.0 mph 27.6 mph N/A   Clear
3:34 PM 55.4 °F - 19.9 °F 25% 29.98 in 10.0 mi South 16.1 mph 27.6 mph N/A   Clear
3:55 PM 55.9 °F - 20.3 °F 25% 29.96 in 10.0 mi SSE 15.0 mph 24.2 mph N/A   Clear
4:14 PM 56.8 °F - 21.0 °F 25% 29.94 in 10.0 mi SSE 17.3 mph 27.6 mph N/A   Clear
4:35 PM 56.7 °F - 21.4 °F 25% 29.93 in 10.0 mi SSE 16.1 mph 29.9 mph N/A   Clear
4:54 PM 56.5 °F - 21.9 °F 26% 29.91 in 10.0 mi SSE 18.4 mph 25.3 mph N/A   Clear
5:15 PM 56.8 °F - 22.6 °F 27% 29.90 in 10.0 mi SSE 16.1 mph 27.6 mph N/A   Clear
5:35 PM 57.7 °F - 23.2 °F 26% 29.88 in 10.0 mi SSE 13.8 mph 29.9 mph N/A   Clear
5:54 PM 57.6 °F - 23.4 °F 27% 29.87 in 10.0 mi SSE 18.4 mph 25.3 mph N/A   Clear
6:15 PM 58.3 °F - 24.1 °F 27% 29.86 in 10.0 mi SSE 19.6 mph 27.6 mph N/A   Clear
6:35 PM 57.4 °F - 24.4 °F 28% 29.86 in 10.0 mi SSE 17.3 mph 26.5 mph N/A   Clear
6:54 PM 56.8 °F - 24.6 °F 29% 29.86 in 10.0 mi SSE 21.9 mph - N/A   Clear
7:15 PM 55.9 °F - 23.9 °F 29% 29.86 in 10.0 mi SSE 16.1 mph 25.3 mph N/A   Clear
7:34 PM 55.2 °F - 23.7 °F 30% 29.86 in 10.0 mi SSE 13.8 mph 19.6 mph N/A   Scattered Clouds
7:54 PM 54.9 °F - 23.7 °F 30% 29.86 in 10.0 mi SSE 15.0 mph 18.4 mph N/A   Scattered Clouds
8:15 PM 54.7 °F - 24.1 °F 31% 29.85 in 10.0 mi SSE 10.4 mph 17.3 mph N/A   Scattered Clouds
8:34 PM 54.5 °F - 24.3 °F 31% 29.84 in 10.0 mi SSE 13.8 mph 18.4 mph N/A   Clear
8:55 PM 54.1 °F - 24.8 °F 32% 29.82 in 10.0 mi SSE 13.8 mph 18.4 mph N/A   Clear
9:15 PM 54.1 °F - 25.3 °F 33% 29.82 in 10.0 mi SSE 12.7 mph 17.3 mph N/A   Clear
9:34 PM 54.1 °F - 25.7 °F 33% 29.82 in 10.0 mi SSE 8.1 mph 16.1 mph N/A   Clear
9:55 PM 53.8 °F - 26.2 °F 35% 29.81 in 10.0 mi SSE 9.2 mph - N/A   Scattered Clouds
10:15 PM 53.4 °F - 26.4 °F 35% 29.79 in 10.0 mi SSE 10.4 mph - N/A   Scattered Clouds
10:34 PM 53.1 °F - 26.4 °F 36% 29.79 in 10.0 mi SSE 11.5 mph 17.3 mph N/A   Scattered Clouds
10:55 PM 53.1 °F - 27.3 °F 37% 29.78 in 10.0 mi SSE 9.2 mph - N/A   Scattered Clouds
11:14 PM 53.1 °F - 27.7 °F 38% 29.77 in 10.0 mi SSE 9.2 mph - N/A   Scattered Clouds
11:34 PM 52.5 °F - 28.0 °F 39% 29.77 in 10.0 mi SSE 5.8 mph - N/A   Scattered Clouds
11:55 PM 53.1 °F - 29.1 °F 40% 29.75 in 10.0 mi SSE 9.2 mph - N/A   Scattered Clouds